User: anonymous   Login
Location: Unspecified
(0.0000°N, 0.0000°E)
Time: 22:14:34
(UTC+00:00)
Language:

EZIE-A - Orbit

View from above orbital plane
View from above orbital plane
View from above satellite
View from above satellite

Ground track
Ground track

The orbit is defined by the following mean orbital elements,

1 63247U          26145.65789132 +.00000000 +00000-0 +40878-3 0 00004
2 63247  97.6935  38.1800 0001054 300.8925  59.2193 14.97114616    09
Epoch (UTC): 25 May 2026 15:47:21
Eccentricity: 0.0001054
inclination: 97.6935°
perigee height: 575 km
apogee height: 577 km
right ascension of ascending node: 38.1800°
argument of perigee: 300.8925°
revolutions per day: 14.97114616
mean anomaly at epoch: 59.2193°

The dashed part of the orbit path shows where the satellite is in the earth's shadow,  

DLR